TimeMST,TemperatureF,Dew PointF,Humidity,Sea Level PressureIn,VisibilityMPH,Wind Direction,Wind SpeedMPH,Gust SpeedMPH,PrecipitationIn,Events,Conditions,WindDirDegrees,DateUTC
12:15 AM,37.4,28.4,70,30.04,10.0,South,18.4,-,N/A,,Overcast,190,2013-03-03 07:15:00
12:55 AM,37.4,30.2,75,30.02,10.0,SSW,17.3,23.0,N/A,,Overcast,200,2013-03-03 07:55:00
1:15 AM,37.4,30.2,75,30.01,10.0,SSW,13.8,-,N/A,,Overcast,200,2013-03-03 08:15:00
1:35 AM,35.6,30.2,81,30.01,10.0,SSW,12.7,-,N/A,,Overcast,210,2013-03-03 08:35:00
1:55 AM,35.6,32.0,87,30.00,8.0,SSW,13.8,-,N/A,,Mostly Cloudy,210,2013-03-03 08:55:00
2:15 AM,33.8,33.8,100,29.99,3.0,South,11.5,-,N/A,,Mostly Cloudy,190,2013-03-03 09:15:00
2:35 AM,33.8,33.8,100,29.98,3.0,SSW,11.5,-,N/A,,Overcast,210,2013-03-03 09:35:00
2:55 AM,33.8,33.8,100,29.96,2.5,SW,8.1,-,N/A,,Overcast,220,2013-03-03 09:55:00
3:15 AM,33.8,33.8,100,29.95,3.0,SSW,11.5,-,N/A,,Overcast,210,2013-03-03 10:15:00
3:35 AM,33.8,33.8,100,29.95,2.0,South,12.7,-,0.01,,Overcast,190,2013-03-03 10:35:00
3:55 AM,33.8,33.8,100,29.92,2.5,SSW,9.2,-,0.01,,Overcast,210,2013-03-03 10:55:00
4:15 AM,33.8,33.8,100,29.92,3.0,SW,9.2,-,0.01,,Overcast,230,2013-03-03 11:15:00
5:35 AM,33.8,33.8,100,29.91,4.0,South,20.7,-,N/A,,Overcast,170,2013-03-03 12:35:00
6:15 AM,35.6,33.8,93,29.90,10.0,South,19.6,26.5,N/A,,Overcast,170,2013-03-03 13:15:00
6:35 AM,35.6,33.8,93,29.89,10.0,South,19.6,-,N/A,,Overcast,170,2013-03-03 13:35:00
6:52 AM,33.8,33.8,100,29.89,4.0,SSE,21.9,27.6,N/A,Snow,Light Snow,160,2013-03-03 13:52:00
6:55 AM,33.8,33.8,100,29.89,6.0,South,21.9,26.5,N/A,,Overcast,170,2013-03-03 13:55:00
7:53 AM,35.6,33.8,93,29.86,4.0,SSE,19.6,-,N/A,Rain-Snow,Light Rain,160,2013-03-03 14:53:00
8:57 AM,35.6,33.8,93,29.85,4.0,South,16.1,-,N/A,Rain-Snow,Light Rain,170,2013-03-03 15:57:00
9:56 AM,35.6,33.8,93,29.83,4.0,South,19.6,-,N/A,,Mostly Cloudy,170,2013-03-03 16:56:00
10:53 AM,35.6,33.8,93,29.80,5.0,SSE,18.4,-,N/A,,Overcast,160,2013-03-03 17:53:00
11:52 AM,35.6,33.8,93,29.80,4.0,SSE,18.4,-,N/A,Rain-Snow,Light Rain,160,2013-03-03 18:52:00
12:51 PM,35.6,33.8,93,29.77,3.0,SSE,18.4,-,N/A,Snow,Light Snow,160,2013-03-03 19:51:00
1:51 PM,37.4,32.0,81,29.76,6.0,SW,13.8,20.7,N/A,Snow,Light Snow,220,2013-03-03 20:51:00
2:55 PM,37.4,28.4,70,29.76,7.0,SW,16.1,21.9,N/A,,Overcast,220,2013-03-03 21:55:00
3:51 PM,35.6,24.8,65,29.75,7.0,SW,19.6,27.6,N/A,,Mostly Cloudy,220,2013-03-03 22:51:00
4:52 PM,35.6,21.2,56,29.74,10.0,SW,20.7,31.1,N/A,,Mostly Cloudy,220,2013-03-03 23:52:00
5:55 PM,33.8,24.8,70,29.76,5.0,SSW,24.2,28.8,N/A,Snow,Light Snow,210,2013-03-04 00:55:00
6:54 PM,32.0,26.6,80,29.78,5.0,SSW,13.8,31.1,N/A,Snow,Light Snow,200,2013-03-04 01:54:00
7:55 PM,28.4,24.8,86,29.80,3.0,SSW,17.3,31.1,N/A,Snow,Light Snow,200,2013-03-04 02:55:00
9:15 PM,24.8,21.2,86,29.84,4.0,WNW,9.2,17.3,N/A,,Overcast,300,2013-03-04 04:15:00
9:35 PM,24.8,17.6,74,29.85,10.0,West,6.9,-,N/A,,Mostly Cloudy,270,2013-03-04 04:35:00
10:15 PM,24.8,15.8,69,29.85,10.0,West,12.7,-,N/A,,Overcast,270,2013-03-04 05:15:00
10:55 PM,21.2,17.6,86,29.87,10.0,North,12.7,-,N/A,,Overcast,360,2013-03-04 05:55:00
11:15 PM,21.2,17.6,86,29.87,10.0,North,10.4,-,N/A,,Overcast,10,2013-03-04 06:15:00
11:35 PM,21.2,17.6,86,29.87,10.0,North,12.7,-,N/A,,Overcast,360,2013-03-04 06:35:00